Regional Weather Roundup
Issued by NWS Grand Forks, ND

Home | Current Version | Previous Version | Graphics & Text | Print | Product List | Glossary On
Versions: 1 2 3 4 5 6 7 8 9 10 11 12 13 14 15 16 17 18 19 20 21 22 23 24 25 26 27 28 29 30 31 32 33 34 35 36 37 38 39 40 41 42 43 44 45 46 47 48 49 50
000
ASUS43 KFGF 210310
RWRFGF
PRAIRIE TO PINES  WEATHER ROUNDUP
NATIONAL WEATHER SERVICE EASTERN NORTH DAKOTA/GRAND FORKS ND
1000 PM CDT FRI APR 20 2018

 **SATELLITE DATA USED TO AUGMENT SKY COVER AT AUTOMATED STATIONS**
 *****  WEATHER ACROSS EASTERN NORTH DAKOTA  *****

CITY           SKY/WX    TMP DP  RH WIND       PRES   REMARKS
GRAND FORKS    FAIR      44  34  67 SE7       30.35S
GRAND FRKS AFB FAIR      43  32  65 S7        30.35R
GRAND FRKS NWS   N/A     44  32  63 S5        30.33R
DEVILS LAKE    FAIR      38  31  76 SE8       30.32R
FARGO          FAIR      47  39  74 S14       30.37R
WAHPETON ARPT  FAIR      41  32  70 S8        30.40R
$$

 ***** WEATHER ACROSS CENTRAL AND WESTERN NORTH DAKOTA  *****

CITY           SKY/WX    TMP DP  RH WIND       PRES   REMARKS
BISMARCK       FAIR      47  33  58 S9        30.30R
MINOT          FAIR      45  37  73 SE8       30.22R
JAMESTOWN      FAIR      42  36  79 S6        30.33R
MINOT AFB      FAIR      41  37  85 SE12      30.20R
GARRISON         N/A     43  31  62 S12       30.24R
WILLISTON      FAIR      51  31  46 SE6       30.14R
DICKINSON      FAIR      45  37  73 S13       30.19R
HETTINGER      MOCLDY    43  36  76 S18       30.23R
$$

 *****  OTHER AIRPORT OBSERVATIONS IN OUR AREA  *****

CITY           SKY/WX    TMP DP  RH WIND       PRES   REMARKS
WALHALLA       FAIR      43  32  65 SE7       30.33S
GRAFTON AIRPOR FAIR      39  34  81 S6        30.37S
VALLEY CITY AR FAIR      43  43 100 S9        30.36R
CANDO          FAIR      37  37 100 SE9       30.32S
CAVALIER APRT    N/A     43  34  70 S7        30.34R
GWINNER          N/A     41  37  87 S7        30.37R
SHEYENNE NWR     N/A     41  40  95 S7        29.95S
ROLLA          FAIR      43  37  81 S12       30.28S
 ***** THE ABOVE OBSERVATIONS ARE NON NWS ARE NOT QUALITY
       CONTROLLED AND MAY MIS-REPORT RAIN FOR SNOW...
$$

  *****  WEATHER ACROSS NORTHERN MINNESOTA  *****

CITY           SKY/WX    TMP DP  RH WIND       PRES   REMARKS
FLAG ISLAND    FAIR      37  28  70 S3        30.34S
WARROAD        FAIR      45  34  65 W6        30.36R
ROSEAU         FAIR      46  36  66 W5        30.35S
HALLOCK        FAIR      43  37  81 S5        30.36R
THF RVR FALLS  FAIR      44  36  73 CALM      30.38R
BAUDETTE       FAIR      42  34  73 CALM      30.35S
WASKISH        FAIR      34  28  80 CALM      30.36S
CROOKSTON      FAIR      45  34  65 S6        30.38R
STEPHEN NDAWN    N/A     43  37  81 S2          N/A
GREENBUSH NDAW   N/A     39  36  87 S3          N/A
$$
  *****  WEATHER ACROSS CENTRAL AND WEST MINNESOTA  *****

CITY           SKY/WX    TMP DP  RH WIND       PRES   REMARKS
FOSSTON        FAIR      37  28  70 S5        30.38S
BEMIDJI        FAIR      45  25  45 SW3       30.37S
PARK RAPIDS    FAIR      40  25  55 S7        30.39R
ELBOW LAKE     FAIR      37  34  87 S9        30.42R
WADENA         FAIR      39  27  60 CALM      30.41R
DETROIT LAKES  FAIR      41  23  48 CALM      30.40S
MOORHEAD       FAIR      45  37  76 S9        30.39S
FERGUS FALLS   FAIR      39  34  81 S5        30.39S
MORRIS MN      FAIR      39  34  81 S8        30.41S
STAPLES        FAIR      37  21  52 S5        30.41R
$$
  *****  WEATHER ELSEWHERE ACROSS MINNESOTA  *****

CITY           SKY/WX    TMP DP  RH WIND       PRES   REMARKS
DULUTH         FAIR      45  24  43 SW8       30.39R
INTRNTL FALLS  FAIR      36  26  67 CALM      30.35R
ELY            FAIR      36  19  51 CALM      30.36S
CLOQUET        FAIR      45  16  31 SW5       30.40R
WHEATON        FAIR      39  34  81 SE8       30.43R
BRAINERD       FAIR      39  23  52 S6        30.42R
HIBBING        FAIR      33  20  58 SW3       30.37R
ALEXANDRIA     FAIR      42  34  73 S7        30.42R
SAINT CLOUD    FAIR      38  25  59 CALM      30.43S
MINNEAPOLIS    MOCLDY    46  24  42 SW3       30.44S
$$

  *****  WEATHER ACROSS SOUTH DAKOTA  *****

CITY           SKY/WX    TMP DP  RH WIND       PRES   REMARKS
SIOUX FALLS    CLOUDY    40  35  83 E5        30.39R
BROOKINGS      CLOUDY    39  34  82 SE8       30.40R
WATERTOWN      FAIR      41  37  86 SE7       30.37S
HURON          CLOUDY    44  37  76 SE9       30.37R
SISSETON         N/A     40  37  89 S8        30.38R
ABERDEEN       FAIR      44  38  79 S7        30.36R
MITCHELL       CLOUDY    40  36  86 SE7       30.39R
PIERRE         CLOUDY    42  42 100 E6        30.32F
MOBRIDGE       CLOUDY    47  36  65 S10       30.29R
RAPID CITY     CLOUDY    39  38  96 SE13      30.22S
$$

  *****  SOME WEATHER IN NEARBY STATES *****

CITY           SKY/WX    TMP DP  RH WIND       PRES   REMARKS
GLASGOW MT     FAIR      53  36  52 E7        30.07R
GREAT FALLS MT FAIR      48  23  37 SW7       30.06R
CHEYENNE WY    LGT SNOW  32  32 100 SE9       30.08R FOG     WCI  24
SCOTTSBLUFF NE CLOUDY    37 N/A N/A SE16      30.17S FOG
OMAHA NE       CLOUDY    55  28  35 E12       30.31S
DES MOINES IA  CLOUDY    53  26  35 E5        30.37S
DAVENPORT IA   FAIR      49  22  34 E6        30.42S
CHICAGO IL     MOCLDY    47  12  24 E3        30.44S
EAU CLAIRE WI  FAIR      41  22  46 SW3       30.43R
LA CROSSE WI   FAIR      43  31  62 CALM      30.43F
$$

  *****  SOME NATIONAL WEATHER *****

CITY           SKY/WX    TMP DP  RH WIND       PRES   REMARKS
LA GUARDIA NY  FAIR      43  24  47 N8        30.36R
RALEIGH NC     FAIR      47  34  60 CALM      30.34S
ATLANTA GA     FAIR      57  36  45 SE3       30.29S
NEW ORLEANS LA MOCLDY    62  46  55 SE5       30.20R
OKLAHOMA CITY  MOCLDY    57  36  45 SE17      30.06R
ALBUQUERQUE NM MOCLDY    53  22  29 NW14G24   30.00R
SALT LAKE CITY FAIR      58  35  42 CALM      30.04R
LOS ANGELES CA FAIR      58  52  80 W12       30.08R
BOISE ID       FAIR      59  26  28 NW8       30.08R
SEATTLE WA     CLOUDY    56  36  47 SW6       30.15F
$$

*** WEATHER ACROSS MANITOBA...SASKATCHEWAN AND ONTARIO ***
                ***ONTARIO***

CITY           SKY/WX    TMP DP  RH WIND       PRES   REMARKS
GERALDTON      CLEAR     41  16  36 W5        30.37R
THUNDER BAY    MOCLDY    37  25  60 E3        30.38S
SIOUX LOOKOUT  NOT AVBL
TORONTO        CLEAR     36  23  60 NW6       30.41F
BIG TROUT LK   CLEAR     39  18  41 SE8       30.33F
PICKLE LAKE    NOT AVBL
DRYDEN         PTCLDY    48  18  29 W5        30.34S
KENORA         MOCLDY    45  21  39 S5        30.33F
$$
                *** MANITOBA***

CITY           SKY/WX    TMP DP  RH WIND       PRES   REMARKS
BRANDON        PTCLDY    45  34  65 SE8       30.25S
DAUPHIN        CLEAR     46  32  57 S3        30.23S
ISLAND LAKE    CLEAR     41  19  42 S2        30.26S
PILOT MOUND      N/A     41  32  70 S12         N/A
THE PAS        PTCLDY    37  28  70 SE9       30.13S
THOMPSON       MOCLDY    45  19  36 S6        30.16S
WINNIPEG       CLEAR     48  32  53 S13G20    30.32R
LYNN LAKE      CLEAR     45  23  42 S7        30.03S
CHURCHILL      CLOUDY    43  30  61 S16G24    30.08S
GILLAM         PTCLDY    45  21  39 S10       30.20F
$$
                ***SASKATCHEWAN***

CITY           SKY/WX    TMP DP  RH WIND       PRES   REMARKS
ESTEVAN        PTCLDY    45  34  65 SE10      30.16S
KINDERSLEY     MOCLDY    52  34  50 W6        30.00S
LLOYDMINSTER   MOCLDY    45  34  65 S6        29.99F
PRINCE ALBERT  PTCLDY    37  32  81 E5        30.07F
REGINA         CLEAR     45  39  81 E10       30.12S
YORKTON        CLEAR     39  34  81 SE9       30.18S
N. BATTLEFORD  CLEAR     43  37  81 NE7       30.03S
LA RONGE       CLEAR     48  32  53 S8        30.01R
SASKATOON      MOCLDY    52  39  62 SE12      30.03R
SWIFT CURRENT  PTCLDY    48  36  61 S12       30.04R
$$
NOTE: THESE ARE AUTOMATED STATIONS WITH LIMITED QUALITY CONTROL
      "FAIR" INDICATES FEW OR NO CLOUDS BELOW 12,000 FEET WITH NO
      SIGNIFICANT WEATHER AND/OR OBSTRUCTIONS TO VISIBILITY.
      SKY/WX - SKY CONDITION AND SIGNIFICANT WEATHER.
      TMP - AIR TEMPERATURE.    DP   - DEWPOINT TEMPERATURE.
      RH  - RELATIVE HUMIDITY.  PRES - PRESSURE.
      HX  - HEAT INDEX.         WCI  - WIND CHILL INDEX.
$




USA.gov is the U.S. government's official web portal to all federal, state and local government web resources and services.